EW3182 Weather Reports


Display with metric or nautical units.
time (UTC)temp
F
wind
direction
speed
MPH
gust
MPH
rain 1hr
in
rain 24hr
in
rain mn
in
humidity
%
barometer
mb
20190223154700 59 267 2.0 9.0 0.00 0.04 0.03 46 1010.2
20190223153837 59 277 2.0 7.0 0.00 0.04 0.03 49 1009.8
20190223153353 59 330 1.0 6.0 0.00 0.04 0.03 51 1009.9
20190223153240 58 307 1.0 6.0 0.00 0.04 0.03 53 1010.2
20190223152845 59 261 2.0 6.0 0.00 0.04 0.03 54 1009.9
20190223152339 58 255 1.0 7.0 0.00 0.04 0.03 59 1009.7
20190223151854 58 304 1.0 15.0 0.00 0.04 0.03 61 1009.6
20190223151619 57 231 1.0 15.0 0.00 0.04 0.03 63 1009.9
20190223151349 57 127 3.0 15.0 0.00 0.04 0.03 64 1009.7
20190223150847 57 356 2.0 10.0 0.00 0.04 0.03 69 1009.8
20190223150342 56 208 3.0 10.0 0.00 0.04 0.03 74 1009.9
20190223145837 56 277 3.0 9.0 0.00 0.04 0.03 82 1009.8
20190223145427 55 266 2.0 9.0 0.00 0.04 0.03 87 1009.8
20190223144842 54 293 2.0 8.0 0.00 0.04 0.03 92 1009.7
20190223144635 53 259 1.0 9.0 0.00 0.04 0.03 93 1009.9
20190223144336 53 214 1.0 9.0 0.00 0.04 0.03 95 1009.7
20190223143852 53 293 4.0 9.0 0.00 0.04 0.03 97 1009.4
20190223143348 53 212 3.0 9.0 0.00 0.04 0.03 98 1009.6
20190223143051 52 243 1.0 3.0 0.00 0.04 0.03 98 1009.8
20190223142353 52 260 0.0 7.0 0.00 0.04 0.03 98 1009.6
20190223141848 52 231 2.0 7.0 0.00 0.04 0.03 98 1009.4
20190223141631 52 231 2.0 7.0 0.00 0.04 0.03 98 1009.7
20190223141342 52 252 2.0 4.0 0.00 0.04 0.03 98 1009.4
20190223140837 52 269 0.0 5.0 0.00 0.04 0.03 98 1009.4
20190223140352 52 281 2.0 5.0 0.00 0.04 0.03 98 1009.3
20190223140109 51 198 1.0 4.0 0.00 0.04 0.03 98 1009.4
20190223135840 52 238 1.0 4.0 0.00 0.04 0.03 98 1009.2
20190223135355 52 207 1.0 4.0 0.00 0.04 0.03 98 1009.4
20190223134644 51 245 0.0 3.0 0.00 0.04 0.03 98 1009.4
20190223134352 52 240 0.0 7.0 0.00 0.04 0.03 98 1009.1
20190223133848 52 249 2.0 7.0 0.00 0.04 0.03 98 1009.2
20190223133343 52 276 2.0 6.0 0.00 0.04 0.03 98 1009.1
20190223133246 51 228 2.0 7.0 0.00 0.04 0.03 98 1009.2
20190223132854 51 257 1.0 7.0 0.00 0.04 0.03 98 1009.0
20190223132349 51 260 1.0 7.0 0.00 0.04 0.03 98 1009.0
20190223131847 51 248 0.0 8.0 0.00 0.04 0.03 98 1009.0
20190223131637 51 263 2.0 8.0 0.00 0.04 0.03 98 1009.3
20190223131342 51 285 3.0 9.0 0.00 0.04 0.03 98 1009.0
20190223130836 51 283 2.0 9.0 0.00 0.04 0.03 98 1009.0
20190223130351 51 273 2.0 5.0 0.00 0.04 0.03 98 1009.0
20190223130047 50 225 1.0 5.0 0.00 0.04 0.03 98 1009.2
20190223125351 50 267 1.0 5.0 0.00 0.09 0.03 98 1008.9
20190223124847 50 295 1.0 5.0 0.00 0.09 0.03 98 1008.9
20190223124606 50 264 0.0 5.0 0.00 0.09 0.03 98 1009.2
20190223124341 50 167 1.0 6.0 0.00 0.09 0.03 98 1009.0
20190223123857 50 251 2.0 6.0 0.00 0.09 0.03 98 1009.0
20190223123352 50 171 0.0 5.0 0.00 0.09 0.03 98 1009.0
20190223123107 49 232 1.0 5.0 0.00 0.09 0.03 98 1009.2
20190223122843 50 252 2.0 6.0 0.01 0.09 0.03 98 1009.0
20190223122358 50 263 1.0 6.0 0.01 0.09 0.03 98 1009.0
20190223121851 50 235 0.0 4.0 0.02 0.09 0.03 98 1009.0
20190223121640 49 232 0.0 4.0 0.02 0.09 0.03 98 1009.2
20190223121346 50 181 1.0 3.0 0.02 0.09 0.03 98 1009.0
20190223120840 50 256 0.0 2.0 0.02 0.09 0.03 98 1008.8
20190223120354 50 284 1.0 2.0 0.02 0.09 0.03 98 1008.6
20190223115848 50 245 0.0 3.0 0.02 0.11 0.03 98 1008.4
20190223115343 50 221 0.0 3.0 0.02 0.11 0.03 98 1008.3
20190223114836 50 232 0.0 2.0 0.03 0.11 0.03 98 1008.4
20190223114657 49 211 0.0 2.0 0.03 0.11 0.03 98 1008.7
20190223114352 50 231 0.0 2.0 0.03 0.11 0.03 98 1008.4
20190223113850 50 250 1.0 3.0 0.03 0.11 0.03 98 1008.5
20190223113346 49 225 1.0 3.0 0.03 0.11 0.03 98 1008.8
20190223113117 49 233 0.0 3.0 0.03 0.11 0.03 98 1009.2
20190223112839 49 231 0.0 3.0 0.02 0.10 0.02 98 1009.1
20190223112352 49 262 0.0 3.0 0.02 0.10 0.02 98 1009.1
20190223111847 49 231 0.0 2.0 0.01 0.09 0.01 98 1008.6
20190223111706 49 276 0.0 2.0 0.01 0.09 0.01 98 1008.7
20190223111342 49 285 0.0 2.0 0.01 0.09 0.01 98 1008.5
20190223110836 49 233 0.0 2.0 0.01 0.09 0.01 98 1008.4
20190223110351 49 121 0.0 1.0 0.01 0.09 0.01 98 1008.2
20190223105846 49 129 0.0 1.0 0.01 0.11 0.01 98 1008.1
20190223105342 49 122 0.0 1.0 0.01 0.11 0.01 98 1008.2
20190223104837 49 238 0.0 1.0 0.00 0.10 0.00 98 1008.4
20190223104744 49 252 0.0 0.0 0.00 0.10 0.00 98 1008.6
20190223104352 49 253 0.0 1.0 0.00 0.10 0.00 98 1008.2
20190223103847 49 253 0.0 1.0 0.00 0.10 0.00 98 1008.2
20190223103342 49 252 0.0 1.0 0.00 0.10 0.00 98 1008.3
20190223103123 49 252 0.0 1.0 0.00 0.10 0.00 98 1008.4
20190223102852 49 250 0.0 1.0 0.00 0.10 0.00 98 1008.1
20190223102345 49 271 0.0 1.0 0.00 0.10 0.00 98 1008.0
20190223101840 49 275 0.0 1.0 0.00 0.10 0.00 98 1008.2
20190223101656 49 277 0.0 1.0 0.00 0.10 0.00 98 1008.5
20190223101356 49 283 0.0 1.0 0.00 0.10 0.00 98 1008.2
20190223100851 49 246 0.0 0.0 0.00 0.10 0.00 98 1008.2
20190223100349 49 250 0.0 1.0 0.00 0.10 0.00 98 1008.4
20190223095846 49 271 0.0 1.0 0.00 0.10 0.00 98 1008.5
20190223095338 49 264 0.0 1.0 0.00 0.10 0.00 97 1008.2
20190223094853 49 221 0.0 1.0 0.00 0.10 0.00 97 1008.2
20190223094633 49 248 0.0 2.0 0.00 0.10 0.00 97 1008.5
20190223094348 49 262 0.0 2.0 0.00 0.10 0.00 97 1008.2
20190223093843 49 211 1.0 2.0 0.00 0.10 0.00 97 1008.1
20190223093340 49 146 0.0 1.0 0.00 0.10 0.00 97 1008.0
20190223093122 48 143 0.0 1.0 0.00 0.10 0.00 97 1008.2
20190223092851 49 167 0.0 1.0 0.00 0.10 0.00 97 1008.0
20190223092346 49 118 0.0 1.0 0.00 0.10 0.00 97 1008.0
20190223091841 49 104 0.0 2.0 0.00 0.10 0.00 97 1007.9
20190223091634 48 146 0.0 2.0 0.00 0.10 0.00 97 1008.3
20190223091336 49 233 0.0 2.0 0.00 0.10 0.00 97 1008.0
20190223090851 49 228 0.0 1.0 0.00 0.10 0.00 97 1007.9
20190223090346 49 198 0.0 1.0 0.00 0.10 0.00 97 1007.8
20190223085841 49 148 0.0 3.0 0.00 0.10 0.00 97 1007.7
20190223085337 49 226 1.0 3.0 0.00 0.10 0.00 97 1007.9
20190223084852 49 212 0.0 1.0 0.00 0.10 0.00 97 1008.0
20190223084712 48 73 0.0 1.0 0.00 0.10 0.00 97 1008.2
20190223084345 49 169 0.0 1.0 0.00 0.10 0.00 97 1008.0
20190223083840 49 155 0.0 1.0 0.00 0.10 0.00 97 1008.1
20190223083356 49 132 0.0 1.0 0.00 0.10 0.00 97 1008.2
20190223083147 48 90 0.0 1.0 0.00 0.10 0.00 97 1008.6
20190223082848 49 172 0.0 1.0 0.00 0.10 0.00 97 1008.3
20190223082346 49 136 0.0 1.0 0.00 0.10 0.00 97 1008.4
20190223081840 49 114 0.0 1.0 0.00 0.10 0.00 97 1008.5
20190223081703 48 119 0.0 1.0 0.00 0.10 0.00 97 1008.8
20190223081356 49 85 0.0 1.0 0.00 0.10 0.00 97 1008.5
20190223080849 49 87 0.0 1.0 0.00 0.10 0.00 97 1008.5
20190223080345 49 88 0.0 1.0 0.00 0.10 0.00 97 1008.6
20190223075841 49 100 0.0 1.0 0.00 0.10 0.00 97 1008.7
20190223075354 49 94 0.0 1.0 0.00 0.10 0.00 97 1009.0
20190223074849 49 236 0.0 1.0 0.00 0.10 0.00 97 1008.8
20190223074613 48 263 0.0 1.0 0.00 0.10 0.00 97 1009.0
20190223074343 49 163 0.0 1.0 0.00 0.10 0.00 97 1008.8
20190223073838 49 89 0.0 2.0 0.00 0.10 0.00 97 1008.7
20190223073353 49 113 0.0 2.0 0.00 0.10 0.00 97 1008.7
20190223073126 48 98 0.0 3.0 0.00 0.10 0.00 97 1008.8
20190223072844 49 103 0.0 3.0 0.00 0.10 0.00 97 1008.6
20190223072338 49 84 1.0 2.0 0.00 0.10 0.00 97 1008.8
20190223071853 49 107 0.0 1.0 0.00 0.10 0.00 97 1009.0
20190223071604 48 132 0.0 1.0 0.00 0.10 0.00 97 1009.2
20190223071347 49 301 0.0 1.0 0.00 0.10 0.00 97 1009.0
20190223070841 49 91 0.0 2.0 0.00 0.10 0.00 97 1009.2
20190223070355 49 101 1.0 2.0 0.00 0.10 0.00 97 1009.1
20190223065851 49 86 1.0 2.0 0.00 0.10 0.00 97 1009.2
20190223065346 49 93 0.0 1.0 0.00 0.10 0.00 97 1009.3
20190223064840 49 82 0.0 1.0 0.00 0.10 0.00 97 1009.5
20190223064610 48 91 0.0 1.0 0.00 0.10 0.00 97 1009.9
20190223064339 49 82 0.0 1.0 0.00 0.10 0.00 97 1009.6
20190223063854 49 91 0.0 1.0 0.00 0.10 0.00 97 1009.6
20190223063149 48 143 0.0 2.0 0.00 0.10 0.00 97 1010.1
20190223062838 49 143 0.0 2.0 0.00 0.10 0.00 97 1009.9
20190223062352 49 91 0.0 2.0 0.00 0.10 0.00 97 1009.9
20190223061846 49 87 0.0 0.0 0.00 0.10 0.00 97 1010.1
20190223061638 48 74 0.0 0.0 0.00 0.10 0.00 97 1010.4
20190223061341 49 50 0.0 0.0 0.00 0.10 0.00 97 1010.1
20190223060855 49 61 0.0 1.0 0.00 0.10 0.00 97 1010.1
20190223060351 49 86 0.0 1.0 0.00 0.10 0.00 97 1010.1
20190223055846 49 89 0.0 1.0 0.00 0.10 0.10 97 1010.1
20190223055340 49 82 0.0 2.0 0.00 0.10 0.10 97 1010.1
20190223054854 49 80 0.0 2.0 0.00 0.10 0.10 97 1010.0
20190223054701 48 81 0.0 2.0 0.00 0.10 0.10 97 1010.4
20190223054348 49 162 0.0 2.0 0.00 0.10 0.10 97 1010.1
20190223053843 49 94 0.0 2.0 0.00 0.10 0.10 97 1010.3
20190223053358 49 205 0.0 2.0 0.00 0.10 0.10 97 1010.5
20190223053213 48 262 0.0 2.0 0.00 0.10 0.10 97 1010.9
20190223052850 49 61 0.0 1.0 0.00 0.10 0.10 97 1010.6
20190223052344 49 125 0.0 1.0 0.00 0.10 0.10 97 1010.6
20190223051840 49 116 0.0 2.0 0.00 0.10 0.10 97 1010.9
20190223051832 48 190 0.0 2.0 0.00 0.10 0.10 97 1011.2
20190223051354 49 170 1.0 3.0 0.00 0.10 0.10 97 1010.9
20190223050848 49 170 0.0 3.0 0.00 0.10 0.10 97 1010.9
20190223050347 49 94 0.0 1.0 0.00 0.10 0.10 97 1011.0
20190223045844 49 136 1.0 2.0 0.00 0.11 0.10 97 1011.1
20190223045336 49 63 0.0 2.0 0.00 0.11 0.10 97 1011.0
20190223044851 49 132 0.0 2.0 0.00 0.11 0.10 97 1011.1
20190223044653 48 84 0.0 2.0 0.00 0.11 0.10 97 1011.4
20190223044346 49 133 0.0 1.0 0.00 0.11 0.10 97 1011.2
20190223043840 49 107 0.0 1.0 0.00 0.11 0.10 97 1011.2
20190223043331 49 58 0.0 0.0 0.00 0.11 0.10 97 1011.4
20190223043116 48 278 0.0 0.0 0.00 0.11 0.10 97 1011.7
20190223042838 49 56 0.0 1.0 0.00 0.11 0.10 97 1011.4
20190223042353 49 136 0.0 1.0 0.00 0.11 0.10 97 1011.5
20190223041846 49 127 0.0 2.0 0.00 0.11 0.10 97 1011.7
20190223041620 48 121 0.0 2.0 0.00 0.11 0.10 97 1011.9
20190223041341 49 75 0.0 3.0 0.00 0.11 0.10 97 1011.5
20190223040836 49 148 0.0 3.0 0.00 0.11 0.10 97 1011.5
20190223040351 49 278 0.0 1.0 0.00 0.11 0.10 97 1011.6
20190223035846 49 243 0.0 2.0 0.00 0.11 0.10 97 1011.6
20190223035341 49 113 0.0 2.0 0.00 0.11 0.10 97 1011.5
20190223034855 49 91 0.0 1.0 0.00 0.11 0.10 97 1011.4
20190223034656 48 65 0.0 1.0 0.00 0.11 0.10 97 1011.9
20190223034348 49 47 0.0 1.0 0.00 0.11 0.10 96 1011.6
20190223033842 49 124 0.0 2.0 0.00 0.11 0.10 96 1011.8
20190223033359 49 105 1.0 2.0 0.00 0.11 0.10 96 1011.8
20190223033146 48 106 0.0 2.0 0.00 0.11 0.10 96 1012.2
20190223032850 49 79 0.0 1.0 0.00 0.11 0.10 96 1012.0
20190223032349 49 141 0.0 1.0 0.00 0.11 0.10 96 1012.2
20190223031845 49 169 0.0 1.0 0.00 0.11 0.10 96 1012.2
20190223031639 48 160 0.0 1.0 0.00 0.11 0.10 96 1012.6
20190223031356 48 195 0.0 1.0 0.00 0.11 0.10 96 1012.3
20190223030849 48 163 0.0 1.0 0.00 0.11 0.10 96 1012.2
20190223030342 48 86 0.0 1.0 0.00 0.11 0.10 96 1012.2
20190223025839 48 101 0.0 1.0 0.00 0.11 0.10 96 1012.4
20190223025353 48 143 0.0 1.0 0.00 0.11 0.10 96 1012.5
20190223024849 48 208 0.0 1.0 0.00 0.11 0.10 96 1012.5
20190223024613 48 248 0.0 1.0 0.00 0.11 0.10 96 1012.8
20190223024343 48 152 0.0 0.0 0.00 0.11 0.10 96 1012.5
20190223023838 48 104 0.0 0.0 0.00 0.11 0.10 96 1012.5
20190223023355 48 105 0.0 0.0 0.00 0.11 0.10 96 1012.3
20190223023222 48 105 0.0 0.0 0.00 0.11 0.10 96 1012.7
20190223022845 48 104 0.0 0.0 0.00 0.11 0.10 96 1012.3
20190223022339 48 146 0.0 1.0 0.00 0.11 0.10 96 1012.3
20190223021853 48 165 0.0 1.0 0.00 0.11 0.10 96 1012.4
20190223021631 48 165 0.0 2.0 0.00 0.11 0.10 96 1012.7
20190223021346 48 84 0.0 2.0 0.00 0.11 0.10 96 1012.3
20190223020841 48 72 1.0 2.0 0.00 0.11 0.10 96 1012.2
20190223020337 48 271 0.0 1.0 0.00 0.11 0.10 96 1012.2
20190223015852 48 270 0.0 1.0 0.00 0.11 0.10 96 1012.3
20190223015346 48 85 0.0 2.0 0.00 0.11 0.10 96 1012.3
20190223014840 48 113 0.0 2.0 0.00 0.11 0.10 96 1012.4
20190223014800 48 124 0.0 1.0 0.00 0.11 0.10 96 1012.6
20190223014337 48 218 0.0 1.0 0.00 0.11 0.10 96 1012.3
20190223013853 48 115 0.0 2.0 0.00 0.11 0.10 96 1012.2
20190223013347 48 96 0.0 4.0 0.00 0.11 0.10 96 1012.2
20190223013138 48 84 0.0 4.0 0.00 0.11 0.10 96 1012.4
20190223012839 48 114 2.0 4.0 0.00 0.11 0.10 96 1012.1
20190223012355 48 94 2.0 3.0 0.00 0.11 0.10 96 1012.0
20190223011848 48 105 1.0 3.0 0.00 0.11 0.10 96 1012.0
20190223011632 48 76 1.0 3.0 0.00 0.11 0.10 96 1012.3
20190223011342 48 104 0.0 2.0 0.00 0.11 0.10 96 1012.1
20190223010837 48 84 0.0 2.0 0.00 0.11 0.10 96 1012.2
20190223010351 48 91 1.0 2.0 0.00 0.11 0.10 95 1012.3
20190223005847 49 72 0.0 2.0 0.00 0.11 0.10 95 1012.4
20190223005342 49 101 0.0 2.0 0.00 0.11 0.10 95 1012.3
20190223004856 49 86 0.0 2.0 0.00 0.11 0.10 95 1012.5
20190223004649 48 89 0.0 2.0 0.00 0.11 0.10 95 1012.7
20190223004350 49 124 0.0 1.0 0.00 0.11 0.10 95 1012.5
20190223003845 49 89 0.0 2.0 0.00 0.11 0.10 95 1012.4
20190223003340 49 89 1.0 2.0 0.00 0.11 0.10 95 1012.5
20190223003136 48 96 0.0 2.0 0.00 0.11 0.10 95 1012.8
20190223002851 49 77 0.0 2.0 0.00 0.11 0.10 95 1012.6
20190223002346 49 89 0.0 3.0 0.00 0.11 0.10 95 1012.6
20190223001841 49 79 1.0 4.0 0.00 0.11 0.10 95 1012.5
20190223001701 48 100 1.0 4.0 0.00 0.11 0.10 95 1012.9
20190223001353 49 89 1.0 4.0 0.00 0.11 0.10 95 1012.6
20190223000849 49 85 1.0 3.0 0.00 0.11 0.10 95 1012.5
20190223000347 49 94 0.0 3.0 0.00 0.11 0.10 95 1012.5
20190222235844 49 94 1.0 3.0 0.00 0.11 0.10 95 1012.7
20190222235338 49 231 0.0 2.0 0.00 0.11 0.10 95 1012.7
20190222234933 48 89 0.0 3.0 0.00 0.11 0.10 95 1012.9
20190222234853 49 92 1.0 3.0 0.00 0.11 0.10 95 1012.6
20190222234348 49 105 2.0 3.0 0.00 0.11 0.10 95 1012.6
20190222233842 49 153 0.0 3.0 0.00 0.11 0.10 95 1012.7
20190222233358 49 107 1.0 3.0 0.00 0.11 0.10 95 1012.6
20190222233202 48 74 0.0 3.0 0.00 0.11 0.10 95 1013.0
20190222232345 49 128 0.0 4.0 0.00 0.11 0.10 95 1012.8
20190222231839 49 101 1.0 5.0 0.00 0.11 0.10 95 1012.8
20190222231717 48 118 0.0 5.0 0.00 0.11 0.10 95 1013.1
20190222231354 49 91 1.0 5.0 0.00 0.11 0.10 95 1012.7
20190222230849 48 94 0.0 5.0 0.00 0.11 0.10 95 1012.8
20190222230343 48 104 2.0 6.0 0.00 0.11 0.10 95 1012.7
20190222225838 49 91 2.0 4.0 0.00 0.11 0.10 96 1012.8
20190222225352 49 113 1.0 3.0 0.00 0.11 0.10 96 1012.9
20190222224847 48 158 0.0 3.0 0.00 0.11 0.10 96 1013.1
20190222224647 48 103 1.0 4.0 0.00 0.11 0.10 96 1013.4
20190222224340 48 132 0.0 4.0 0.00 0.11 0.10 96 1013.1
20190222223855 48 125 2.0 4.0 0.00 0.11 0.10 96 1013.2
20190222223350 48 114 2.0 4.0 0.00 0.11 0.10 96 1013.2
20190222223120 48 106 1.0 4.0 0.00 0.11 0.10 96 1013.6
20190222222841 48 70 1.0 4.0 0.00 0.11 0.10 96 1013.2
20190222222339 48 217 1.0 3.0 0.00 0.11 0.10 96 1013.3
20190222221853 48 100 1.0 3.0 0.00 0.11 0.10 96 1013.2
20190222221624 48 91 1.0 3.0 0.00 0.11 0.10 96 1013.6
20190222221349 48 158 1.0 2.0 0.00 0.11 0.10 96 1013.2
20190222220843 48 120 0.0 3.0 0.00 0.11 0.10 96 1013.2
20190222220337 48 94 0.0 4.0 0.00 0.11 0.10 96 1013.2
20190222215835 48 100 2.0 4.0 0.00 0.11 0.10 96 1013.1
20190222215349 48 110 0.0 3.0 0.00 0.11 0.10 96 1013.1
20190222214844 48 102 1.0 3.0 0.00 0.11 0.10 96 1013.2
20190222214637 48 96 0.0 3.0 0.00 0.11 0.10 96 1013.5
20190222214339 48 98 1.0 3.0 0.00 0.11 0.10 96 1013.1
20190222213853 48 96 1.0 4.0 0.00 0.11 0.10 96 1013.2
20190222213349 48 105 1.0 3.0 0.00 0.11 0.10 96 1013.3
20190222213127 48 103 0.0 4.0 0.00 0.11 0.10 96 1013.6
20190222212839 48 84 1.0 4.0 0.00 0.11 0.10 96 1013.2
20190222212355 48 89 1.0 3.0 0.00 0.11 0.10 96 1013.3
20190222211849 48 103 0.0 2.0 0.00 0.11 0.10 96 1013.2
20190222211639 48 114 0.0 2.0 0.01 0.11 0.10 96 1013.5
20190222211343 48 91 0.0 2.0 0.01 0.11 0.10 96 1013.2
20190222210839 48 96 0.0 2.0 0.01 0.11 0.10 96 1013.2
20190222210353 48 113 0.0 3.0 0.01 0.11 0.10 96 1013.2
20190222205849 48 103 1.0 5.0 0.01 0.11 0.10 96 1013.2
20190222205344 48 72 1.0 6.0 0.01 0.11 0.10 96 1013.3
20190222204839 48 98 1.0 2.0 0.01 0.11 0.10 96 1013.1
20190222204551 47 98 0.0 4.0 0.01 0.11 0.10 97 1013.5
20190222204336 48 94 0.0 4.0 0.01 0.11 0.10 96 1013.3
20190222203851 48 124 2.0 4.0 0.01 0.11 0.10 96 1013.1
20190222203347 48 102 2.0 5.0 0.01 0.11 0.10 96 1013.1
20190222203111 47 77 2.0 5.0 0.01 0.11 0.10 96 1013.4
20190222202837 48 90 2.0 5.0 0.01 0.11 0.10 97 1013.2
20190222202353 48 86 1.0 4.0 0.01 0.11 0.10 97 1013.4
20190222201848 48 98 1.0 3.0 0.01 0.11 0.10 97 1013.1
20190222201620 47 107 0.0 2.0 0.00 0.10 0.09 97 1013.6
20190222201342 48 96 1.0 3.0 0.00 0.10 0.09 97 1013.4
20190222200837 48 84 0.0 3.0 0.00 0.10 0.09 97 1013.7
20190222200351 48 91 0.0 1.0 0.00 0.10 0.09 97 1013.8
20190222195849 47 94 0.0 1.0 0.00 0.10 0.09 97 1013.9
20190222195343 47 98 0.0 1.0 0.00 0.10 0.09 97 1013.9
20190222194838 47 69 0.0 4.0 0.00 0.10 0.09 97 1013.8
20190222194652 47 93 0.0 4.0 0.00 0.10 0.09 97 1014.2
20190222194353 47 118 1.0 4.0 0.00 0.10 0.09 97 1013.8
20190222193848 47 107 1.0 4.0 0.00 0.10 0.09 97 1013.8
20190222193343 47 27 1.0 3.0 0.00 0.10 0.09 97 1013.8
20190222193129 47 96 0.0 3.0 0.00 0.10 0.09 97 1014.1
20190222192835 47 104 1.0 3.0 0.00 0.10 0.09 97 1014.0
20190222192351 47 65 1.0 3.0 0.00 0.10 0.09 97 1014.0
20190222191845 47 37 0.0 4.0 0.00 0.10 0.09 97 1014.2
20190222191631 47 96 0.0 4.0 0.00 0.10 0.09 97 1014.6
20190222191340 47 77 1.0 4.0 0.00 0.10 0.09 97 1014.2
20190222190839 47 124 0.0 5.0 0.00 0.10 0.09 97 1014.3
20190222190353 47 120 1.0 5.0 0.00 0.10 0.09 97 1014.3
20190222185849 47 93 1.0 4.0 0.00 0.10 0.09 97 1014.5
20190222185343 47 120 1.0 3.0 0.00 0.10 0.09 97 1014.5
20190222184839 47 104 0.0 3.0 0.00 0.10 0.09 97 1014.8
20190222184643 47 136 0.0 2.0 0.00 0.10 0.09 97 1015.2
20190222184353 47 70 0.0 2.0 0.00 0.10 0.09 97 1015.0
20190222183847 47 124 0.0 1.0 0.00 0.10 0.09 97 1015.1
20190222183344 47 100 0.0 2.0 0.00 0.10 0.09 97 1015.4
20190222183119 47 100 0.0 2.0 0.00 0.10 0.09 97 1015.8
20190222182835 47 63 0.0 2.0 0.00 0.10 0.09 97 1015.5
20190222182350 47 72 0.0 1.0 0.00 0.10 0.09 97 1015.6
20190222181845 47 75 0.0 4.0 0.00 0.10 0.09 97 1015.7
20190222181625 47 89 0.0 4.0 0.00 0.10 0.09 97 1016.1
20190222181341 47 90 0.0 4.0 0.00 0.10 0.09 97 1015.8
20190222180854 47 114 0.0 3.0 0.00 0.10 0.09 97 1015.8
20190222180349 47 84 0.0 2.0 0.00 0.10 0.09 97 1015.9
20190222175846 47 44 0.0 6.0 0.00 0.10 0.09 97 1015.9
20190222175341 47 98 2.0 6.0 0.00 0.10 0.09 97 1015.8
20190222174855 47 23 0.0 4.0 0.00 0.10 0.09 97 1015.9
20190222174713 46 16 1.0 4.0 0.00 0.10 0.09 97 1016.3
20190222174349 47 98 1.0 5.0 0.00 0.10 0.09 97 1016.0
20190222173843 47 62 1.0 3.0 0.00 0.10 0.09 97 1016.1
20190222173339 47 98 0.0 3.0 0.00 0.10 0.09 97 1016.3
20190222173220 46 94 0.0 3.0 0.00 0.10 0.09 97 1016.8
20190222172850 47 87 0.0 3.0 0.00 0.10 0.09 97 1016.5
20190222172347 47 97 1.0 2.0 0.00 0.10 0.09 97 1016.5
20190222171842 47 101 0.0 2.0 0.00 0.10 0.09 97 1016.5
20190222171634 46 94 0.0 3.0 0.00 0.10 0.09 97 1017.0
20190222171336 47 89 0.0 3.0 0.00 0.10 0.09 97 1016.8
20190222170852 47 82 1.0 4.0 0.00 0.10 0.09 97 1016.6
20190222170347 47 62 1.0 4.0 0.00 0.10 0.09 97 1016.4
20190222165843 47 93 1.0 3.0 0.00 0.10 0.09 97 1016.6
20190222165338 47 70 1.0 2.0 0.00 0.10 0.09 97 1016.8
20190222164852 47 100 0.0 1.0 0.00 0.10 0.09 97 1016.8
20190222164718 46 95 0.0 1.0 0.00 0.10 0.09 97 1017.1
20190222164347 47 66 0.0 2.0 0.00 0.10 0.09 97 1016.8
20190222163842 47 75 0.0 3.0 0.00 0.10 0.09 97 1016.9
20190222163358 47 76 0.0 3.0 0.00 0.10 0.09 97 1016.8
20190222163132 46 77 0.0 2.0 0.00 0.10 0.09 97 1017.2
20190222162848 47 92 0.0 2.0 0.00 0.10 0.09 97 1016.9
20190222162342 47 95 0.0 2.0 0.00 0.10 0.09 97 1016.9
20190222161838 47 98 0.0 1.0 0.00 0.10 0.09 97 1017.2
20190222161646 46 100 0.0 1.0 0.00 0.10 0.09 97 1017.4
20190222161352 47 63 0.0 1.0 0.00 0.10 0.09 97 1017.1
20190222160848 47 61 0.0 1.0 0.00 0.10 0.09 97 1017.4
20190222160341 46 88 0.0 1.0 0.00 0.10 0.09 97 1017.3
20190222155840 46 97 0.0 2.0 0.00 0.12 0.09 96 1017.6
20190222155335 46 82 1.0 2.0 0.00 0.12 0.09 96 1017.6
20190222154850 46 86 0.0 2.0 0.00 0.12 0.09 96 1017.6
20190222154746 46 75 1.0 2.0 0.00 0.12 0.09 96 1017.9